World > North America > United States > New York > Mellenville  

Mellenville, NY Hourly Weather Updates

Feedback E-mail the Weather

Quick Clicks

Mellenville, NY Weather Maps

°F °C°F °C
Mellenville Weather Map
UTC Time: 6/18/2024, 14:41
Your Time:

Mellenville, NY Regional Weather

Expires:202406181500;;235711
ASUS41 KALY 181410
RWRALY

NEW YORK STATE HOURLY WEATHER ROUNDUP
NATIONAL WEATHER SERVICE ALBANY NY
1000 AM EDT TUE JUN 18 2024

NOTE: "FAIR" INDICATES FEW OR NO CLOUDS BELOW 12,000 FEET WITH NO
SIGNIFICANT WEATHER AND/OR NO OBSTRUCTIONS TO VISIBILITY.


NYZ032-033-038>043-046>054-057>066-NYZ062>081-082-084-181500-
EAST

  
CITY           SKY/WX    TMP DP  RH WIND       PRES   REMARKS
ALBANY         MOSUNNY   82  69  64 S6        30.22R                  
GLENS FALLS    MOSUNNY   80  69  69 S6        30.21R                  
POUGHKEEPSIE   MOSUNNY   82  69  64 VRB5      30.22R                  
NEWBURGH       MOSUNNY   79  70  73 W5        30.24R                  
MONTGOMERY     MOSUNNY   79  68  69 SW8       30.23R                  
WHITE PLAINS   SUNNY     79  67  66 S5        30.25R                  
ISLIP          MOSUNNY   76  67  73 SW13      30.26R                  
NEW YORK CITY  MOSUNNY   81  63  54 SW7       30.24R                  
CENTRAL PARK   SUNNY     78  68  71 CALM      30.28R                  
$$


SKY/WX - Weather  TMP - Temperature  DP - Dew Point  RH - Humidity
WIND - Wind Direction/Speed PRES - Barometric Pressure VSB - Visibility
WCI - Wind Chill Index E13G22 Wind - East Wind 13 mph/Gusts of 22 mph

Trending Headlines

Trending Entertainment Headlines

Mellenville Radar Loop

Use the map search tool if you want to place a location marker on the radar map...

Mellenville Quick Facts

National Two Day Weather Forecast


E-mail the Mellenville Weather Forecast

Voice your opinion or tell us about page issues...